Weather in Pakhachi

Russia / Kamchatka Krai     60°33′19″N   169°08′35″E
temp.,
°C
wind,
m/s
gust,
m/s
humid.,
%
clouds,
%
prec.,
mm/h
press.,
hPa
HPBL,
m
28 february, sun
sun2800:00−19n3497100 0.1 1024114
03:00−20n3498100 0.1 1024103
06:00−19nne3497100 0.2 1024104
09:00−18nne3392100 0.1 1025106
12:00−16ne568895 0.1 1024198
15:00−16ne46840 0.0 1021192
18:00−17ne578450 0.0 1019162
21:00−17nne5880100 0.0 1017237
1 march, mon
mon100:00−17nne71772100 0.0 1010691
03:00−15nne61871100 0.0 1003874
06:00−15ne122663100 0.0 997971
09:00−14ne122665100 0.0 992974
12:00−13ne122473100 0.0 9891117
15:00−11nne72070100 0.1 9881234
18:00−15n51571100 0.1 990990
21:00−18n3580100 0.0 994299
2 march, tue
tue200:00−20n4581100 0.0 997228
03:00−22n5680100 0.0 999189
06:00−22nne5781100 0.0 1002197
09:00−22n4578100 0.0 1006168
12:00−20n3476100 0.0 1008179
15:00−18n347498 0.0 1011203
18:00−19n237978 0.0 101472
21:00−20n33790 0.0 101869
3 march, wed
wed300:00−20n33783 0.0 102071
03:00−21n337953 0.0 102268
06:00−21n337775 0.0 102462
09:00−20n337558 0.0 102672
12:00−17n237679 0.0 1027115
15:00−16nne238199 0.0 1026127
18:00−15ne3383100 0.0 102578
21:00−15ene5782100 0.0 1023155
4 march, thu
thu400:00−11e91983100 0.0 1016576
03:00−8e162784100 0.5 1008805
06:00−8e192892100 2.8 998602
09:000se182798100 7.0 9901003
12:000se192798100 17.0 9811079
15:00−2s111896100 7.9 975788
18:00−7ssw91487100 8.9 979437
21:00−13w111871100 0.6 9871164